Retour au catalogue

THORAD AGENA D DEB

ActifPO
NORAD 4645·DEBRIS·🇺🇸 United States

Lancé Apr 8, 1970 depuis Vandenberg Space Force Base

Loading…

Prochains Passages (prochaines 24 heures)

TLE

FraisSource: Space-Track

Époque: Sep 14, 2026, 19:13 UTC

1 04645U 70025AD  26257.80133837 -.00000038  00000-0 -43041-5 0  9998
2 04645  99.8832 298.0756 0328639  47.9519   1.4425 12.86638652646956

Suivez THORAD AGENA D DEB en temps réel avec AllMySat

Download on the App Store